< < Back
Terminal Aerodrome Forecast


Current Version              Previous Versions:   1  2  3  4  5  6  7  8  9  

Terminal Aerodrome Forecast

840
FTUS42 KILM 202300
TAFFLO
TAF
KFLO 202320Z 2100/2124 21003KT P6SM BKN040
     FM210600 VRB02KT P6SM SCT040
     FM211300 32004KT P6SM SKC=

Latest METAR

093
SAUS70 KWBC 210400 RRC
MTRFLO
METAR KFLO 210353Z AUTO 00000KT 10SM CLR 13/12 A2999 RMK AO2 SLP155
T01330117 $


USA.gov is the U.S. government's official web portal to all federal, state and local government web resources and services.